Weather History for Naples, FL

Change the Weather History Date:

Saturday, December 8, 2012

  Actual Average Record
Temperature  
Mean Temperature 73 °F 68 °F  
Max Temperature 81 °F 78 °F 89 °F (1972)
Min Temperature 65 °F 58 °F 39 °F (2010)
Degree Days  
Heating Degree Days 0 2  
Month to date heating degree days 0 11  
Since 1 July heating degree days 13 25  
Cooling Degree Days 8 5  
Month to date cooling degree days 51 40  
Year to date cooling degree days 4017 3859  
Growing Degree Days 22 (Base 50)    
Moisture  
Dew Point 68 °F    
Average Humidity 81    
Maximum Humidity 100    
Minimum Humidity 62    
Precipitation  
Precipitation T in 0.05 in 1.68 in (1979)
Month to date precipitation 0.11 0.37  
Year to date precipitation 36.26 50.81  
Snow  
Snow 0.00 in - - ()
Month to date snowfall 0.0  
Since 1 July snowfall 0.0  
Snow Depth 0.00 in    
Sea Level Pressure  
Sea Level Pressure 29.99 in    
Wind  
Wind Speed 3 mph (East)    
Max Wind Speed 13 mph    
Max Gust Speed 15 mph    
Visibility 10 miles    
Events      
T = Trace of Precipitation, MM = Missing Value Source: NWS Daily Summary

Daily Weather History Graph

Daily Weather History Graph

Search for Another Location

Airport:

Trip Planner

Search our weather history database for the weather conditions in past years. The results will help you decide how hot, cold, wet, or windy it might be!

Date:

Astronomy

Dec. 08, 2012 Rise Set
Actual Time 7:02 AM EST 5:35 PM EST
Civil Twilight 6:37 AM EST 6:00 PM EST
Nautical Twilight 6:08 AM EST 6:29 PM EST
Astronomical Twilight 5:40 AM EST 6:57 PM EST
Moon 1:50 AM EST (12/8) 1:43 PM EST (12/8)
Length of Visible Light 11h 23m
Length of Day
10h 33m
Waning Crescent, 28% of the Moon is Illuminated
Dec 8
Waning Crescent
Dec 13
New
Dec 20
First Quarter
Dec 28
Full
Jan 4
Last Quarter

Hourly Weather History & Observations

Time (EST) Temp. Heat Index Dew Point Humidity Pressure Visibility Wind Dir Wind Speed Gust Speed Precip Events Conditions
12:53 AM 66.0 °F - 64.9 °F 96% 29.97 in 10.0 mi Calm Calm - N/A   Clear
1:53 AM 66.0 °F - 66.0 °F 100% 29.97 in 10.0 mi Calm Calm - N/A   Mostly Cloudy
2:53 AM 66.0 °F - 66.0 °F 100% 29.96 in 10.0 mi ENE 3.5 mph - N/A   Overcast
3:53 AM 66.9 °F - 66.9 °F 100% 29.96 in 10.0 mi East 3.5 mph - N/A   Overcast
4:53 AM 66.9 °F - 66.0 °F 97% 29.97 in 10.0 mi Calm Calm - N/A   Partly Cloudy
6:53 AM 64.9 °F - 64.9 °F 100% 29.99 in 9.0 mi Calm Calm - N/A   Clear
7:53 AM 66.9 °F - 66.9 °F 100% 30.01 in 10.0 mi Calm Calm - N/A   Clear
8:53 AM 73.0 °F - 69.1 °F 87% 30.02 in 10.0 mi East 5.8 mph - N/A   Clear
9:53 AM 77.0 °F - 70.0 °F 79% 30.03 in 10.0 mi ESE 8.1 mph - N/A   Clear
10:53 AM 81.0 °F 84.4 °F 70.0 °F 69% 30.01 in 10.0 mi ESE 6.9 mph - N/A   Partly Cloudy
11:53 AM 79.0 °F - 69.1 °F 72% 29.99 in 10.0 mi ESE 5.8 mph - N/A   Overcast
12:53 PM 80.1 °F 82.7 °F 68.0 °F 67% 29.97 in 10.0 mi ESE 3.5 mph - N/A   Mostly Cloudy
1:53 PM 77.0 °F - 72.0 °F 84% 29.96 in 8.0 mi South 8.1 mph - 0.00 in   Mostly Cloudy
2:53 PM 78.1 °F - 66.9 °F 68% 29.96 in 10.0 mi NE 8.1 mph - 0.00 in   Overcast
3:53 PM 77.0 °F - 68.0 °F 74% 29.96 in 10.0 mi Calm Calm - N/A   Mostly Cloudy
5:53 PM 75.9 °F - 68.0 °F 76% 29.98 in 10.0 mi NNW 3.5 mph - N/A   Overcast
6:53 PM 73.9 °F - 70.0 °F 87% 30.00 in 10.0 mi Calm Calm - N/A   Overcast
7:53 PM 72.0 °F - 69.1 °F 91% 30.01 in 10.0 mi ENE 4.6 mph - N/A   Mostly Cloudy
8:53 PM 71.1 °F - 70.0 °F 96% 30.04 in 10.0 mi NE 3.5 mph - N/A   Mostly Cloudy
9:53 PM 70.0 °F - 69.1 °F 97% 30.04 in 10.0 mi North - - N/A   Clear
11:42 PM 69.8 °F - 69.8 °F 100% 30.04 in 10.0 mi Calm Calm - N/A   Mostly Cloudy
11:53 PM 70.0 °F - 69.1 °F 97% 30.04 in 10.0 mi Calm Calm - N/A   Overcast